User: anonymous   Login
Location: Oshawa
(43.9000°N, 78.8670°W)
Time: 04:08:39
(UTC-05:00)
Language:

CZ-4C R/B - Orbit

View from above orbital plane
View from above orbital plane
View from above satellite
View from above satellite

Ground track
Ground track

The orbit data is extracted from the following two-line orbital elements,

1 32290U 07055B   17327.38863958  .00003266  00000-0  90830-4 0  9994
2 32290  97.5413  77.3461 0063906 284.8270  74.5900 15.35594686556249
Epoch (UTC): 23 November 2017 09:19:38
Eccentricity: 0.0063906
inclination: 97.5413°
perigee height: 415 km
apogee height: 503 km
right ascension of ascending node: 77.3461°
argument of perigee: 284.8270°
revolutions per day: 15.35594686
mean anomaly at epoch: 74.5900°
orbit number at epoch: 55624

The dashed part of the orbit path shows where the satellite is in the earth's shadow,  

DLR